STARLINK-1709, 46561

Orbit data source: Space-Track

STARLINK-1709, 46561 is a payload satellite owned by SpaceX/Seattle (US) in LEO that was launched on Tue, 06 Oct 2020 UTC via an FALCON 9 launch vehicle from the Air Force Eastern Test Range (AFETR). Payloads include a variety of satellites, spacecraft, and rockets equipped with specific instruments for various scientific and technological missions. These include communications satellites like Starlink; space stations such as the ISS; scientific satellites like the Hubble; Earth observation satellites from companies like Planet Labs, Umbra, and HawkEye 360; GPS; miniature CubeSats for education and research; and military/defense satellites.

Loading next visibility...
STARLINK-1709 details
Identifier
46561, 2020-070AF
Orbit
LEO
Last TLE update4 hours ago
Origin
Flag of USSpaceX/Seattle (US)
ManufacturerSpaceX/Seattle
MissionPartially operational Commercial Communications
Bus & MotorSTARLINK, Unknown motor
Mass260 kg wet, ~248 kg dry
Launch date (UTC)
2020-10-06 (4 years ago)
Launch vehicle
FALCON 9
Launch site
Air Force Eastern Test Range (AFETR)
Object type
Payload
Rocket body
Debris
Shape & HBRBox + 1 Pan, 8.86 m
Radar Cross Section13.562 m², Large (>1 m²)

Expand to show TLE details & history

TLE from 4 hours ago
0 STARLINK-1709
1 46561U 20070AF  24361.25001157  .00291363  00000-0  22426-2 0  9990
2 46561  53.0450 307.8247 0009936  95.2192 142.8424 15.70541741233959
Epoch: 2024-12-26T06:00Z
Definitive object data (Epoch: 2024-12-26T06:00:00.999Z)
Latitude-42.93796°
Longitude-13.2956°
Altitude377.042 km
Speed7.68 km/s
True Right ascension11h 27m 45s
True Declination-42° 45' 25"
Sunlit
Object was in daylight at TLE epoch
Visualization TLE readout
Latitude-2.9023°
Longitude-56.13524°
Altitude358.09 km
Speed7.696 km/s
Apparent Right ascension06h 19m 02s
Apparent Declination-60° 52' 05"
Sunlit
Object is in full shadow
Visualization observer readout
Local Sidereal Time09:42:10
Azimuth203.499° SW
Elevation-18.93°
Doppler factor1
Orbital elements
Apogee altitude364.32 km
Perigee altitude350.935 km
Semi-major axis6,735.764 km
Eccentricity0.0009936
Inclination53.045°
RAAN307.8247°
Arg. of periapsis95.2192°
True anomaly142.9111°
Mean anomaly142.8424°
Eccentric anomaly142.87676°
Mean motion3.92611 °/min
BSTAR0.0022426
Orbital period91.69 mins
Loading maneuver chart data...
Loading historical data...
Loading historical data...
Loading historical data...
Loading historical data...
Loading historical data...
Loading historical data...
Loading historical data...

STARLINK-1709 Visibility forecast

Observer location: undefined°, undefined

Span
Click to sort rows by Start time (UTC) header in descending order
Start Az.
Max El. time (UTC)
Max El. Az.
Max El.
End time (UTC)
End Az.
5 mins2024-12-26 23:29:59.794Z232.315° WSW2024-12-26 23:32:59.794Z33.517° NE41.889°2024-12-26 23:34:59.794Z48.036° ENE
|